Location: ??????
(55.7522°N, 37.6156°E)
Time: 17:41:22
(UTC+00:00)

Cosmos 2278 Rocket - Pass Details

Date: 14 June 2025
Orbit: 838 x 846 km, 71.0° (Epoch: 13 July)

Event Time Altitude Azimuth Distance (km) Brightness Sun altitude
Exits shadow 22:29:31 - 161° (SSE) 2,686 4.3 -9.9°
Reaches altitude 10° 22:30:15 10° 157° (SSE) 2,455 4.1 -9.9°
Maximum altitude 22:34:43 25° 104° (ESE) 1,648 3.7 -9.7°
Drops below altitude 10° 22:39:13 10° 51° (NE) 2,474 5.5 -9.6°
Sets 22:42:04 0° 39° (NE) 3,415 6.8 -9.5°
